| time (UTC) | temp F | wind direction | speed knots | gust knots | rain 1hr in | rain 24hr in | rain mn in | humidity % | barometer mb |
| 20260505040004 | 58 | 138 | 0.9 | 2.6 | 0.00 | 0.00 | 0.00 | 50 | 1010.1 |
| 20260505035003 | 58 | 138 | 1.7 | 4.3 | 0.00 | 0.00 | 0.00 | 48 | 1010.0 |
| 20260505034003 | 59 | 139 | 0.9 | 4.3 | 0.00 | 0.00 | 0.00 | 47 | 1010.0 |
| 20260505033003 | 60 | 149 | 0.9 | 3.5 | 0.00 | 0.00 | 0.00 | 46 | 1009.9 |
| 20260505032003 | 61 | 137 | 0.9 | 3.5 | 0.00 | 0.00 | 0.00 | 43 | 1009.6 |
| 20260505031003 | 60 | 132 | 2.6 | 4.3 | 0.00 | 0.00 | 0.00 | 43 | 1009.5 |
| 20260505030003 | 60 | 138 | 2.6 | 7.8 | 0.00 | 0.00 | 0.00 | 44 | 1009.4 |
| 20260505025003 | 61 | 145 | 1.7 | 6.1 | 0.00 | 0.00 | 0.00 | 44 | 1009.3 |
| 20260505024003 | 62 | 146 | 1.7 | 4.3 | 0.00 | 0.00 | 0.00 | 41 | 1009.2 |
| 20260505023003 | 62 | 155 | 0.9 | 3.5 | 0.00 | 0.00 | 0.00 | 42 | 1009.1 |
| 20260505022003 | 63 | 0 | 0.0 | 2.6 | 0.00 | 0.00 | 0.00 | 40 | 1009.1 |
| 20260505021003 | 64 | 124 | 0.9 | 3.5 | 0.00 | 0.00 | 0.00 | 37 | 1008.9 |
| 20260505020003 | 64 | 33 | 0.9 | 4.3 | 0.00 | 0.00 | 0.00 | 37 | 1008.9 |
| 20260505015003 | 65 | 0 | 0.0 | 1.7 | 0.00 | 0.00 | 0.00 | 37 | 1008.8 |
| 20260505014003 | 65 | 0 | 0.0 | 0.0 | 0.00 | 0.00 | 0.00 | 37 | 1009.0 |
| 20260505013003 | 65 | 0 | 0.0 | 2.6 | 0.00 | 0.00 | 0.00 | 38 | 1008.9 |
| 20260505012003 | 65 | 0 | 0.0 | 2.6 | 0.00 | 0.00 | 0.00 | 37 | 1008.9 |
| 20260505011003 | 66 | 0 | 0.0 | 0.0 | 0.00 | 0.00 | 0.00 | 37 | 1009.1 |
| 20260505010003 | 66 | 0 | 0.0 | 0.0 | 0.00 | 0.00 | 0.00 | 37 | 1009.1 |
| 20260505005004 | 66 | 0 | 0.0 | 1.7 | 0.00 | 0.00 | 0.00 | 36 | 1009.3 |
| 20260505004003 | 66 | 292 | 0.9 | 4.3 | 0.00 | 0.00 | 0.00 | 36 | 1009.6 |
| 20260505003003 | 67 | 319 | 1.7 | 5.2 | 0.00 | 0.00 | 0.00 | 33 | 1009.7 |
| 20260505002003 | 68 | 320 | 1.7 | 5.2 | 0.00 | 0.00 | 0.00 | 33 | 1009.8 |
| 20260505001003 | 69 | 332 | 1.7 | 6.1 | 0.00 | 0.00 | 0.00 | 30 | 1009.9 |
| 20260505000003 | 70 | 339 | 2.6 | 7.0 | 0.00 | 0.00 | 0.00 | 29 | 1009.7 |
| 20260504235003 | 71 | 336 | 2.6 | 10.4 | 0.00 | 0.00 | 0.00 | 29 | 1009.7 |
| 20260504234003 | 73 | 335 | 3.5 | 11.3 | 0.00 | 0.00 | 0.00 | 29 | 1009.5 |
| 20260504233003 | 75 | 334 | 5.2 | 12.2 | 0.00 | 0.00 | 0.00 | 27 | 1009.4 |
| 20260504232003 | 77 | 339 | 4.3 | 11.3 | 0.00 | 0.00 | 0.00 | 25 | 1009.5 |
| 20260504231003 | 77 | 311 | 0.9 | 5.2 | 0.00 | 0.00 | 0.00 | 20 | 1009.2 |
| 20260504230003 | 77 | 247 | 0.9 | 4.3 | 0.00 | 0.00 | 0.00 | 20 | 1009.2 |
| 20260504225003 | 77 | 0 | 0.0 | 1.7 | 0.00 | 0.00 | 0.00 | 20 | 1009.3 |
| 20260504224003 | 76 | 305 | 2.6 | 5.2 | 0.00 | 0.00 | 0.00 | 20 | 1009.3 |
| 20260504223003 | 76 | 278 | 0.9 | 5.2 | 0.00 | 0.00 | 0.00 | 22 | 1009.1 |
| 20260504222003 | 76 | 253 | 0.9 | 4.3 | 0.00 | 0.00 | 0.00 | 22 | 1009.2 |
| 20260504221003 | 76 | 259 | 0.9 | 4.3 | 0.00 | 0.00 | 0.00 | 22 | 1009.3 |
| 20260504220003 | 75 | 251 | 0.9 | 6.1 | 0.00 | 0.00 | 0.00 | 21 | 1009.4 |
| 20260504215003 | 75 | 212 | 0.9 | 6.1 | 0.00 | 0.00 | 0.00 | 21 | 1009.7 |
| 20260504214003 | 75 | 174 | 1.7 | 5.2 | 0.00 | 0.00 | 0.00 | 20 | 1009.9 |
| 20260504213003 | 76 | 149 | 0.9 | 4.3 | 0.00 | 0.00 | 0.00 | 22 | 1010.0 |
| 20260504212003 | 75 | 205 | 0.9 | 3.5 | 0.00 | 0.00 | 0.00 | 27 | 1010.1 |
| 20260504211003 | 74 | 259 | 1.7 | 6.1 | 0.00 | 0.00 | 0.00 | 26 | 1010.3 |
| 20260504210003 | 74 | 259 | 1.7 | 4.3 | 0.00 | 0.00 | 0.00 | 28 | 1010.4 |
| 20260504205003 | 74 | 286 | 1.7 | 6.1 | 0.00 | 0.00 | 0.00 | 26 | 1010.6 |
| 20260504204003 | 74 | 265 | 1.7 | 4.3 | 0.00 | 0.00 | 0.00 | 28 | 1010.6 |
| 20260504203003 | 74 | 306 | 1.7 | 7.8 | 0.00 | 0.00 | 0.00 | 28 | 1010.7 |
| 20260504202003 | 74 | 311 | 3.5 | 7.8 | 0.00 | 0.00 | 0.00 | 28 | 1010.9 |
| 20260504201003 | 74 | 312 | 1.7 | 7.8 | 0.00 | 0.00 | 0.00 | 30 | 1010.9 |
| 20260504200003 | 74 | 23 | 0.9 | 4.3 | 0.00 | 0.00 | 0.00 | 29 | 1011.1 |
| 20260504195003 | 75 | 57 | 0.9 | 2.6 | 0.00 | 0.00 | 0.00 | 30 | 1011.2 |
| 20260504194003 | 74 | 0 | 0.0 | 3.5 | 0.00 | 0.00 | 0.00 | 27 | 1011.3 |
| 20260504193003 | 74 | 341 | 0.9 | 3.5 | 0.00 | 0.00 | 0.00 | 29 | 1011.4 |
| 20260504192003 | 74 | 52 | 0.9 | 3.5 | 0.00 | 0.00 | 0.00 | 27 | 1011.6 |
| 20260504191003 | 74 | 8 | 0.9 | 7.0 | 0.00 | 0.00 | 0.00 | 28 | 1011.7 |
| 20260504190003 | 74 | 0 | 0.0 | 4.3 | 0.00 | 0.00 | 0.00 | 30 | 1011.9 |
| 20260504185003 | 73 | 325 | 0.9 | 4.3 | 0.00 | 0.00 | 0.00 | 30 | 1012.1 |
| 20260504184003 | 72 | 6 | 0.9 | 5.2 | 0.00 | 0.00 | 0.00 | 33 | 1012.3 |
| 20260504183003 | 72 | 320 | 0.9 | 2.6 | 0.00 | 0.00 | 0.00 | 36 | 1012.4 |
| 20260504182003 | 71 | 318 | 0.9 | 4.3 | 0.00 | 0.00 | 0.00 | 37 | 1012.6 |
| 20260504181003 | 69 | 0 | 0.0 | 2.6 | 0.00 | 0.00 | 0.00 | 40 | 1012.8 |
| 20260504180003 | 68 | 318 | 1.7 | 4.3 | 0.00 | 0.00 | 0.00 | 36 | 1012.9 |
| 20260504175003 | 69 | 0 | 0.0 | 1.7 | 0.00 | 0.00 | 0.00 | 38 | 1013.1 |
| 20260504174003 | 68 | 0 | 0.0 | 2.6 | 0.00 | 0.00 | 0.00 | 41 | 1013.1 |
| 20260504173003 | 67 | 0 | 0.0 | 2.6 | 0.00 | 0.00 | 0.00 | 40 | 1013.2 |
| 20260504172003 | 65 | 310 | 0.9 | 3.5 | 0.00 | 0.00 | 0.00 | 40 | 1013.3 |
| 20260504171003 | 64 | 310 | 0.9 | 5.2 | 0.00 | 0.00 | 0.00 | 42 | 1013.3 |
| 20260504151003 | 54 | 325 | 0.9 | 2.6 | 0.00 | 0.00 | 0.00 | 52 | 1013.7 |
| 20260504141003 | 47 | 0 | 0.0 | 0.0 | 0.00 | 0.00 | 0.00 | 67 | 1014.1 |
| 20260504082003 | 51 | 141 | 1.7 | 6.1 | 0.00 | 0.00 | 0.00 | 43 | 1013.0 |
| 20260504081003 | 52 | 155 | 2.6 | 7.0 | 0.00 | 0.00 | 0.00 | 41 | 1013.0 |
| 20260504050003 | 54 | 151 | 2.6 | 6.1 | 0.00 | 0.00 | 0.00 | 41 | 1013.9 |
| 20260504045003 | 53 | 181 | 0.9 | 3.5 | 0.00 | 0.00 | 0.00 | 43 | 1014.0 |
| 20260504044003 | 53 | 0 | 0.0 | 1.7 | 0.00 | 0.00 | 0.00 | 43 | 1013.9 |
| 20260504043003 | 54 | 0 | 0.0 | 1.7 | 0.00 | 0.00 | 0.00 | 45 | 1013.9 |
| 20260504042003 | 56 | 0 | 0.0 | 2.6 | 0.00 | 0.00 | 0.00 | 41 | 1013.9 |
| 20260504041003 | 57 | 193 | 0.9 | 3.5 | 0.00 | 0.00 | 0.00 | 39 | 1013.8 |